Year,Month,Day,Hour,Minute,Value (Times are PST for temperature in C)
2020,11,04,00,00,10.80
2020,11,04,00,01,10.80
2020,11,04,00,02,10.80
2020,11,04,00,03,10.80
2020,11,04,00,04,10.80
2020,11,04,00,05,10.80
2020,11,04,00,06,10.80
2020,11,04,00,07,10.80
2020,11,04,00,08,10.80
2020,11,04,00,09,10.80
2020,11,04,00,10,10.80
2020,11,04,00,11,10.80
2020,11,04,00,12,10.80
2020,11,04,00,13,10.80
2020,11,04,00,14,10.80
2020,11,04,00,15,10.80
2020,11,04,00,16,10.80
2020,11,04,00,17,10.80
2020,11,04,00,18,10.80
2020,11,04,00,19,10.80
2020,11,04,00,20,10.80
2020,11,04,00,21,10.80
2020,11,04,00,22,10.80
2020,11,04,00,23,10.80
2020,11,04,00,24,10.80
2020,11,04,00,25,10.80
2020,11,04,00,26,10.80
2020,11,04,00,27,10.80
2020,11,04,00,28,10.80
2020,11,04,00,29,10.80
2020,11,04,00,30,10.80
2020,11,04,00,31,10.80
2020,11,04,00,32,10.80
2020,11,04,00,33,10.80
2020,11,04,00,34,10.80
2020,11,04,00,35,10.80
2020,11,04,00,36,10.80
2020,11,04,00,37,10.80
2020,11,04,00,38,10.80
2020,11,04,00,39,10.80
2020,11,04,00,40,10.80
2020,11,04,00,41,10.80
2020,11,04,00,42,10.80
2020,11,04,00,43,10.80
2020,11,04,00,44,10.80
2020,11,04,00,45,10.80
2020,11,04,00,46,10.80
2020,11,04,00,47,10.80
2020,11,04,00,48,10.80
2020,11,04,00,49,10.80
2020,11,04,00,50,10.80
2020,11,04,00,51,10.80
2020,11,04,00,52,10.80
2020,11,04,00,53,10.80
2020,11,04,00,54,10.80
2020,11,04,00,55,10.80
2020,11,04,00,56,10.80
2020,11,04,00,57,10.80
2020,11,04,00,58,10.80
2020,11,04,00,59,10.80
2020,11,04,01,00,10.80
2020,11,04,01,01,10.80
2020,11,04,01,02,10.80
2020,11,04,01,03,10.80
2020,11,04,01,04,10.80
2020,11,04,01,05,10.80
2020,11,04,01,06,10.80
2020,11,04,01,07,10.80
2020,11,04,01,08,10.80
2020,11,04,01,09,10.80
2020,11,04,01,10,10.80
2020,11,04,01,11,10.80
2020,11,04,01,12,10.80
2020,11,04,01,13,10.80
2020,11,04,01,14,10.80
2020,11,04,01,15,10.80
2020,11,04,01,16,10.90
2020,11,04,01,17,10.90
2020,11,04,01,18,10.90
2020,11,04,01,19,10.90
2020,11,04,01,20,10.90
2020,11,04,01,21,10.90
2020,11,04,01,22,10.90
2020,11,04,01,23,10.90
2020,11,04,01,24,10.90
2020,11,04,01,25,10.90
2020,11,04,01,26,10.90
2020,11,04,01,27,10.90
2020,11,04,01,28,10.90
2020,11,04,01,29,10.90
2020,11,04,01,30,10.90
2020,11,04,01,31,10.90
2020,11,04,01,32,10.90
2020,11,04,01,33,10.90
2020,11,04,01,34,10.90
2020,11,04,01,35,10.90
2020,11,04,01,36,10.90
2020,11,04,01,37,10.90
2020,11,04,01,38,10.90
2020,11,04,01,39,10.90
2020,11,04,01,40,10.90
2020,11,04,01,41,10.90
2020,11,04,01,42,10.90
2020,11,04,01,43,10.90
2020,11,04,01,44,11.00
2020,11,04,01,45,11.00
2020,11,04,01,46,11.00
2020,11,04,01,47,11.00
2020,11,04,01,48,11.00
2020,11,04,01,49,11.00
2020,11,04,01,50,11.00
2020,11,04,01,51,11.10
2020,11,04,01,52,11.10
2020,11,04,01,53,11.10
2020,11,04,01,54,11.10
2020,11,04,01,55,11.10
2020,11,04,01,56,11.10
2020,11,04,01,57,11.10
2020,11,04,01,58,11.10
2020,11,04,01,59,11.10
2020,11,04,02,00,11.10
2020,11,04,02,01,11.10
2020,11,04,02,02,11.10
2020,11,04,02,03,11.10
2020,11,04,02,04,11.10
2020,11,04,02,05,11.10
2020,11,04,02,06,11.10
2020,11,04,02,07,11.10
2020,11,04,02,08,11.10
2020,11,04,02,09,11.10
2020,11,04,02,10,11.10
2020,11,04,02,11,11.20
2020,11,04,02,12,11.20
2020,11,04,02,13,11.20
2020,11,04,02,14,11.20
2020,11,04,02,15,11.20
2020,11,04,02,16,11.20
2020,11,04,02,17,11.20
2020,11,04,02,18,11.20
2020,11,04,02,19,11.20
2020,11,04,02,20,11.20
2020,11,04,02,21,11.20
2020,11,04,02,22,11.20
2020,11,04,02,23,11.20
2020,11,04,02,24,11.20
2020,11,04,02,25,11.20
2020,11,04,02,26,11.20
2020,11,04,02,27,11.20
2020,11,04,02,28,11.20
2020,11,04,02,29,11.30
2020,11,04,02,30,11.30
2020,11,04,02,31,11.30
2020,11,04,02,32,11.30
2020,11,04,02,33,11.30
2020,11,04,02,34,11.30
2020,11,04,02,35,11.30
2020,11,04,02,36,11.30
2020,11,04,02,37,11.30
2020,11,04,02,38,11.30
2020,11,04,02,39,11.30
2020,11,04,02,40,11.30
2020,11,04,02,41,11.30
2020,11,04,02,42,11.30
2020,11,04,02,43,11.30
2020,11,04,02,44,11.30
2020,11,04,02,45,11.30
2020,11,04,02,46,11.30
2020,11,04,02,47,11.30
2020,11,04,02,48,11.30
2020,11,04,02,49,11.30
2020,11,04,02,50,11.30
2020,11,04,02,51,11.30
2020,11,04,02,52,11.30
2020,11,04,02,53,11.30
2020,11,04,02,54,11.30
2020,11,04,02,55,11.30
2020,11,04,02,56,11.20
2020,11,04,02,57,11.20
2020,11,04,02,58,11.20
2020,11,04,02,59,11.20
2020,11,04,03,00,11.20
2020,11,04,03,01,11.20
2020,11,04,03,02,11.20
2020,11,04,03,03,11.20
2020,11,04,03,04,11.20
2020,11,04,03,05,11.20
2020,11,04,03,06,11.20
2020,11,04,03,07,11.20
2020,11,04,03,08,11.20
2020,11,04,03,09,11.20
2020,11,04,03,10,11.20
2020,11,04,03,11,11.10
2020,11,04,03,12,11.20
2020,11,04,03,13,11.10
2020,11,04,03,14,11.10
2020,11,04,03,15,11.10
2020,11,04,03,16,11.10
2020,11,04,03,17,11.10
2020,11,04,03,18,11.10
2020,11,04,03,19,11.10
2020,11,04,03,20,11.10
2020,11,04,03,21,11.10
2020,11,04,03,22,11.10
2020,11,04,03,23,11.00
2020,11,04,03,24,11.00
2020,11,04,03,25,11.00
2020,11,04,03,26,11.00
2020,11,04,03,27,11.00
2020,11,04,03,28,11.00
2020,11,04,03,29,11.00
2020,11,04,03,30,11.00
2020,11,04,03,31,11.00
2020,11,04,03,32,10.90
2020,11,04,03,33,10.90
2020,11,04,03,34,10.90
2020,11,04,03,35,10.90
2020,11,04,03,36,10.90
2020,11,04,03,37,10.90
2020,11,04,03,38,10.90
2020,11,04,03,39,10.90
2020,11,04,03,40,10.90
2020,11,04,03,41,10.90
2020,11,04,03,42,10.90
2020,11,04,03,43,10.90
2020,11,04,03,44,10.90
2020,11,04,03,45,10.90
2020,11,04,03,46,10.90
2020,11,04,03,47,10.90
2020,11,04,03,48,10.90
2020,11,04,03,49,10.90
2020,11,04,03,50,10.90
2020,11,04,03,51,10.90
2020,11,04,03,52,10.90
2020,11,04,03,53,10.90
2020,11,04,03,54,10.90
2020,11,04,03,55,10.90
2020,11,04,03,56,10.90
2020,11,04,03,57,10.90
2020,11,04,03,58,10.90
2020,11,04,03,59,10.90
2020,11,04,04,00,10.90
2020,11,04,04,01,10.90
2020,11,04,04,02,10.90
2020,11,04,04,03,10.90
2020,11,04,04,04,10.90
2020,11,04,04,05,10.90
2020,11,04,04,06,10.90
2020,11,04,04,07,10.90
2020,11,04,04,08,10.90
2020,11,04,04,09,10.90
2020,11,04,04,10,10.90
2020,11,04,04,11,10.90
2020,11,04,04,12,10.90
2020,11,04,04,13,10.90
2020,11,04,04,14,10.90
2020,11,04,04,15,10.90
2020,11,04,04,16,10.90
2020,11,04,04,17,10.90
2020,11,04,04,18,10.90
2020,11,04,04,19,10.90
2020,11,04,04,20,10.90
2020,11,04,04,21,10.90
2020,11,04,04,22,10.90
2020,11,04,04,23,10.90
2020,11,04,04,24,10.90
2020,11,04,04,25,10.90
2020,11,04,04,26,10.90
2020,11,04,04,27,10.90
2020,11,04,04,28,10.90
2020,11,04,04,29,10.90
2020,11,04,04,30,10.90
2020,11,04,04,31,10.90
2020,11,04,04,32,10.90
2020,11,04,04,33,10.90
2020,11,04,04,34,10.90
2020,11,04,04,35,10.90
2020,11,04,04,36,10.90
2020,11,04,04,37,10.90
2020,11,04,04,38,10.90
2020,11,04,04,39,10.90
2020,11,04,04,40,10.90
2020,11,04,04,41,10.90
2020,11,04,04,42,10.90
2020,11,04,04,43,10.90
2020,11,04,04,44,10.90
2020,11,04,04,45,11.00
2020,11,04,04,46,11.00
2020,11,04,04,47,10.90
2020,11,04,04,48,11.00
2020,11,04,04,49,11.00
2020,11,04,04,50,11.00
2020,11,04,04,51,11.00
2020,11,04,04,52,11.00
2020,11,04,04,53,11.00
2020,11,04,04,54,11.00
2020,11,04,04,55,11.00
2020,11,04,04,56,11.00
2020,11,04,04,57,11.00
2020,11,04,04,58,11.00
2020,11,04,04,59,11.00
2020,11,04,05,00,11.10
2020,11,04,05,01,11.10
2020,11,04,05,02,11.00
2020,11,04,05,03,11.10
2020,11,04,05,04,11.10
2020,11,04,05,05,11.10
2020,11,04,05,06,11.10
2020,11,04,05,07,11.10
2020,11,04,05,08,11.10
2020,11,04,05,09,11.10
2020,11,04,05,10,11.10
2020,11,04,05,11,11.10
2020,11,04,05,12,11.10
2020,11,04,05,13,11.10
2020,11,04,05,14,11.10
2020,11,04,05,15,11.10
2020,11,04,05,16,11.10
2020,11,04,05,17,11.10
2020,11,04,05,18,11.10
2020,11,04,05,19,11.10
2020,11,04,05,20,11.10
2020,11,04,05,21,11.10
2020,11,04,05,22,11.10
2020,11,04,05,23,11.10
2020,11,04,05,24,11.10
2020,11,04,05,25,11.10
2020,11,04,05,26,11.10
2020,11,04,05,27,11.10
2020,11,04,05,28,11.10
2020,11,04,05,29,11.10
2020,11,04,05,30,11.10
2020,11,04,05,31,11.10
2020,11,04,05,32,11.10
2020,11,04,05,33,11.10
2020,11,04,05,34,11.10
2020,11,04,05,35,11.10
2020,11,04,05,36,11.20
2020,11,04,05,37,11.10
2020,11,04,05,38,11.20
2020,11,04,05,39,11.20
2020,11,04,05,40,11.10
2020,11,04,05,41,11.20
2020,11,04,05,42,11.20
2020,11,04,05,43,11.20
2020,11,04,05,44,11.20
2020,11,04,05,45,11.10
2020,11,04,05,46,11.20
2020,11,04,05,47,11.10
2020,11,04,05,48,11.10
2020,11,04,05,49,11.10
2020,11,04,05,50,11.10
2020,11,04,05,51,11.10
2020,11,04,05,52,11.10
2020,11,04,05,53,11.10
2020,11,04,05,54,11.10
2020,11,04,05,55,11.10
2020,11,04,05,56,11.10
2020,11,04,05,57,11.20
2020,11,04,05,58,11.20
2020,11,04,05,59,11.20
2020,11,04,06,00,11.20
2020,11,04,06,01,11.20
2020,11,04,06,02,11.20
2020,11,04,06,03,11.20
2020,11,04,06,04,11.20
2020,11,04,06,05,11.20
2020,11,04,06,06,11.20
2020,11,04,06,07,11.20
2020,11,04,06,08,11.20
2020,11,04,06,09,11.20
2020,11,04,06,10,11.20
2020,11,04,06,11,11.30
2020,11,04,06,12,11.20
2020,11,04,06,13,11.20
2020,11,04,06,14,11.20
2020,11,04,06,15,11.30
2020,11,04,06,16,11.30
2020,11,04,06,17,11.30
2020,11,04,06,18,11.30
2020,11,04,06,19,11.30
2020,11,04,06,20,11.30
2020,11,04,06,21,11.30
2020,11,04,06,22,11.30
2020,11,04,06,23,11.30
2020,11,04,06,24,11.30
2020,11,04,06,25,11.30
2020,11,04,06,26,11.30
2020,11,04,06,27,11.30
2020,11,04,06,28,11.30
2020,11,04,06,29,11.30
2020,11,04,06,30,11.30
2020,11,04,06,31,11.30
2020,11,04,06,32,11.30
2020,11,04,06,33,11.30
2020,11,04,06,34,11.30
2020,11,04,06,35,11.30
2020,11,04,06,36,11.30
2020,11,04,06,37,11.30
2020,11,04,06,38,11.30
2020,11,04,06,39,11.30
2020,11,04,06,40,11.30
2020,11,04,06,41,11.30
2020,11,04,06,42,11.30
2020,11,04,06,43,11.30
2020,11,04,06,44,11.30
2020,11,04,06,45,11.30
2020,11,04,06,46,11.30
2020,11,04,06,47,11.30
2020,11,04,06,48,11.30
2020,11,04,06,49,11.30
2020,11,04,06,50,11.30
2020,11,04,06,51,11.30
2020,11,04,06,52,11.30
2020,11,04,06,53,11.30
2020,11,04,06,54,11.30
2020,11,04,06,55,11.30
2020,11,04,06,56,11.30
2020,11,04,06,57,11.30
2020,11,04,06,58,11.30
2020,11,04,06,59,11.30
2020,11,04,07,00,11.30
2020,11,04,07,01,11.30
2020,11,04,07,02,11.30
2020,11,04,07,03,11.30
2020,11,04,07,04,11.30
2020,11,04,07,05,11.30
2020,11,04,07,06,11.30
2020,11,04,07,07,11.30
2020,11,04,07,08,11.30
2020,11,04,07,09,11.30
2020,11,04,07,10,11.30
2020,11,04,07,11,11.30
2020,11,04,07,12,11.30
2020,11,04,07,13,11.30
2020,11,04,07,14,11.30
2020,11,04,07,15,11.40
2020,11,04,07,16,11.30
2020,11,04,07,17,11.40
2020,11,04,07,18,11.40
2020,11,04,07,19,11.40
2020,11,04,07,20,11.40
2020,11,04,07,21,11.40
2020,11,04,07,22,11.40
2020,11,04,07,23,11.40
2020,11,04,07,24,11.40
2020,11,04,07,25,11.40
2020,11,04,07,26,11.40
2020,11,04,07,27,11.40
2020,11,04,07,28,11.40
2020,11,04,07,29,11.50
2020,11,04,07,30,11.50
2020,11,04,07,31,11.50
2020,11,04,07,32,11.50
2020,11,04,07,33,11.60
2020,11,04,07,34,11.60
2020,11,04,07,35,11.60
2020,11,04,07,36,11.60
2020,11,04,07,37,11.70
2020,11,04,07,38,11.70
2020,11,04,07,39,11.70
2020,11,04,07,40,11.70
2020,11,04,07,41,11.70
2020,11,04,07,42,11.70
2020,11,04,07,43,11.70
2020,11,04,07,44,11.80
2020,11,04,07,45,11.80
2020,11,04,07,46,11.80
2020,11,04,07,47,11.80
2020,11,04,07,48,11.80
2020,11,04,07,49,11.90
2020,11,04,07,50,11.90
2020,11,04,07,51,11.90
2020,11,04,07,52,11.90
2020,11,04,07,53,11.90
2020,11,04,07,54,11.90
2020,11,04,07,55,11.90
2020,11,04,07,56,11.90
2020,11,04,07,57,11.90
2020,11,04,07,58,11.90
2020,11,04,07,59,11.90
2020,11,04,08,00,11.90
2020,11,04,08,01,12.00
2020,11,04,08,02,12.00
2020,11,04,08,03,12.00
2020,11,04,08,04,12.00
2020,11,04,08,05,12.00
2020,11,04,08,06,12.00
2020,11,04,08,07,12.00
2020,11,04,08,08,12.00
2020,11,04,08,09,12.00
2020,11,04,08,10,12.00
2020,11,04,08,11,12.00
2020,11,04,08,12,12.00
2020,11,04,08,13,12.00
2020,11,04,08,14,12.00
2020,11,04,08,15,12.00
2020,11,04,08,16,12.00
2020,11,04,08,17,12.10
2020,11,04,08,18,12.00
2020,11,04,08,19,12.10
2020,11,04,08,20,12.00
2020,11,04,08,21,12.10
2020,11,04,08,22,12.00
2020,11,04,08,23,12.00
2020,11,04,08,24,12.10
2020,11,04,08,25,12.00
2020,11,04,08,26,12.00
2020,11,04,08,27,12.00
2020,11,04,08,28,12.00
2020,11,04,08,29,12.00
2020,11,04,08,30,12.10
2020,11,04,08,31,12.00
2020,11,04,08,32,12.00
2020,11,04,08,33,12.00
2020,11,04,08,34,12.10
2020,11,04,08,35,12.00
2020,11,04,08,36,12.10
2020,11,04,08,37,12.00
2020,11,04,08,38,12.00
2020,11,04,08,39,12.00
2020,11,04,08,40,12.00
2020,11,04,08,41,12.00
2020,11,04,08,42,12.10
2020,11,04,08,43,12.10
2020,11,04,08,44,12.10
2020,11,04,08,45,12.10
2020,11,04,08,46,12.10
2020,11,04,08,47,12.10
2020,11,04,08,48,12.10
2020,11,04,08,49,12.10
2020,11,04,08,50,12.10
2020,11,04,08,51,12.10
2020,11,04,08,52,12.10
2020,11,04,08,53,12.10
2020,11,04,08,54,12.10
2020,11,04,08,55,12.10
2020,11,04,08,56,12.10
2020,11,04,08,57,12.10
2020,11,04,08,58,12.10
2020,11,04,08,59,12.10
2020,11,04,09,00,12.10
2020,11,04,09,01,12.10
2020,11,04,09,02,12.10
2020,11,04,09,03,12.10
2020,11,04,09,04,12.10
2020,11,04,09,05,12.10
2020,11,04,09,06,12.10
2020,11,04,09,07,12.10
2020,11,04,09,08,12.10
2020,11,04,09,09,12.10
2020,11,04,09,10,12.10
2020,11,04,09,11,12.10
2020,11,04,09,12,12.10
2020,11,04,09,13,12.10
2020,11,04,09,14,12.10
2020,11,04,09,15,12.10
2020,11,04,09,16,12.10
2020,11,04,09,17,12.10
2020,11,04,09,18,12.20
2020,11,04,09,19,12.20
2020,11,04,09,20,12.20
2020,11,04,09,21,12.20
2020,11,04,09,22,12.20
2020,11,04,09,23,12.20
2020,11,04,09,24,12.20
2020,11,04,09,25,12.20
2020,11,04,09,26,12.20
2020,11,04,09,27,12.30
2020,11,04,09,28,12.30
2020,11,04,09,29,12.30
2020,11,04,09,30,12.30
2020,11,04,09,31,12.30
2020,11,04,09,32,12.30
2020,11,04,09,33,12.30
2020,11,04,09,34,12.30
2020,11,04,09,35,12.30
2020,11,04,09,36,12.30
2020,11,04,09,37,12.30
2020,11,04,09,38,12.30
2020,11,04,09,39,12.30
2020,11,04,09,40,12.30
2020,11,04,09,41,12.30
2020,11,04,09,42,12.40
2020,11,04,09,43,12.30
2020,11,04,09,44,12.40
2020,11,04,09,45,12.40
2020,11,04,09,46,12.40
2020,11,04,09,47,12.40
2020,11,04,09,48,12.40
2020,11,04,09,49,12.40
2020,11,04,09,50,12.40
2020,11,04,09,51,12.40
2020,11,04,09,52,12.40
2020,11,04,09,53,12.50
2020,11,04,09,54,12.50
2020,11,04,09,55,12.50
2020,11,04,09,56,12.50
2020,11,04,09,57,12.50
2020,11,04,09,58,12.50
2020,11,04,09,59,12.50
2020,11,04,10,00,12.50
2020,11,04,10,01,12.50
2020,11,04,10,02,12.50
2020,11,04,10,03,12.60
2020,11,04,10,04,12.60
2020,11,04,10,05,12.60
2020,11,04,10,06,12.60
2020,11,04,10,07,12.60
2020,11,04,10,08,12.60
2020,11,04,10,09,12.60
2020,11,04,10,10,12.60
2020,11,04,10,11,12.60
2020,11,04,10,12,12.60
2020,11,04,10,13,12.60
2020,11,04,10,14,12.60
2020,11,04,10,15,12.70
2020,11,04,10,16,12.60
2020,11,04,10,17,12.70
2020,11,04,10,18,12.70
2020,11,04,10,19,12.70
2020,11,04,10,20,12.70
2020,11,04,10,21,12.70
2020,11,04,10,22,12.70
2020,11,04,10,23,12.70
2020,11,04,10,24,12.70
2020,11,04,10,25,12.70
2020,11,04,10,26,12.70
2020,11,04,10,27,12.80
2020,11,04,10,28,12.80
2020,11,04,10,29,12.80
2020,11,04,10,30,12.80
2020,11,04,10,31,12.80
2020,11,04,10,32,12.80
2020,11,04,10,33,12.80
2020,11,04,10,34,12.70
2020,11,04,10,35,12.80
2020,11,04,10,36,12.80
2020,11,04,10,37,12.70
2020,11,04,10,38,12.70
2020,11,04,10,39,12.70
2020,11,04,10,40,12.80
2020,11,04,10,41,12.80
2020,11,04,10,42,12.80
2020,11,04,10,43,12.80
2020,11,04,10,44,12.80
2020,11,04,10,45,12.80
2020,11,04,10,46,12.80
2020,11,04,10,47,12.80
2020,11,04,10,48,12.80
2020,11,04,10,49,12.80
2020,11,04,10,50,12.80
2020,11,04,10,51,12.80
2020,11,04,10,52,12.80
2020,11,04,10,53,12.80
2020,11,04,10,54,12.80
2020,11,04,10,55,12.80
2020,11,04,10,56,12.80
2020,11,04,10,57,12.80
2020,11,04,10,58,12.80
2020,11,04,10,59,12.80
2020,11,04,11,00,12.80
2020,11,04,11,01,12.80
2020,11,04,11,02,12.80
2020,11,04,11,03,12.80
2020,11,04,11,04,12.80
2020,11,04,11,05,12.80
2020,11,04,11,06,12.90
2020,11,04,11,07,12.80
2020,11,04,11,08,12.90
2020,11,04,11,09,12.90
2020,11,04,11,10,12.90
2020,11,04,11,11,12.90
2020,11,04,11,12,12.90
2020,11,04,11,13,12.90
2020,11,04,11,14,12.90
2020,11,04,11,15,12.90
2020,11,04,11,16,12.90
2020,11,04,11,17,12.90
2020,11,04,11,18,12.90
2020,11,04,11,19,12.90
2020,11,04,11,20,12.90
2020,11,04,11,21,12.90
2020,11,04,11,22,12.90
2020,11,04,11,23,12.90
2020,11,04,11,24,12.90
2020,11,04,11,25,12.90
2020,11,04,11,26,12.90
2020,11,04,11,27,13.00
2020,11,04,11,28,13.00
2020,11,04,11,29,13.00
2020,11,04,11,30,13.00
2020,11,04,11,31,13.00
2020,11,04,11,32,13.00
2020,11,04,11,33,13.00
2020,11,04,11,34,13.00
2020,11,04,11,35,13.10
2020,11,04,11,36,13.00
2020,11,04,11,37,13.10
2020,11,04,11,38,13.10
2020,11,04,11,39,13.10
2020,11,04,11,40,13.20
2020,11,04,11,41,13.20
2020,11,04,11,42,13.30
2020,11,04,11,43,13.30
2020,11,04,11,44,13.40
2020,11,04,11,45,13.40
2020,11,04,11,46,13.50
2020,11,04,11,47,13.50
2020,11,04,11,48,13.60
2020,11,04,11,49,13.70
2020,11,04,11,50,13.70
2020,11,04,11,51,13.70
2020,11,04,11,52,13.70
2020,11,04,11,53,13.80
2020,11,04,11,54,13.80
2020,11,04,11,55,13.80
2020,11,04,11,56,13.80
2020,11,04,11,57,13.80
2020,11,04,11,58,13.80
2020,11,04,11,59,13.80
2020,11,04,12,00,13.80
2020,11,04,12,01,13.80
2020,11,04,12,02,13.80
2020,11,04,12,03,13.80
2020,11,04,12,04,13.80
2020,11,04,12,05,13.80
2020,11,04,12,06,13.80
2020,11,04,12,07,13.80
2020,11,04,12,08,13.80
2020,11,04,12,09,13.80
2020,11,04,12,10,13.70
2020,11,04,12,11,13.70
2020,11,04,12,12,13.70
2020,11,04,12,13,13.70
2020,11,04,12,14,13.70
2020,11,04,12,15,13.60
2020,11,04,12,16,13.60
2020,11,04,12,17,13.60
2020,11,04,12,18,13.60
2020,11,04,12,19,13.70
2020,11,04,12,20,13.70
2020,11,04,12,21,13.70
2020,11,04,12,22,13.80
2020,11,04,12,23,13.80
2020,11,04,12,24,13.80
2020,11,04,12,25,13.80
2020,11,04,12,26,13.80
2020,11,04,12,27,13.80
2020,11,04,12,28,13.80
2020,11,04,12,29,13.80
2020,11,04,12,30,13.80
2020,11,04,12,31,13.90
2020,11,04,12,32,13.90
2020,11,04,12,33,13.90
2020,11,04,12,34,13.90
2020,11,04,12,35,13.90
2020,11,04,12,36,13.90
2020,11,04,12,37,13.90
2020,11,04,12,38,13.90
2020,11,04,12,39,14.00
2020,11,04,12,40,14.00
2020,11,04,12,41,14.10
2020,11,04,12,42,14.10
2020,11,04,12,43,14.10
2020,11,04,12,44,14.10
2020,11,04,12,45,14.00
2020,11,04,12,46,13.90
2020,11,04,12,47,14.00
2020,11,04,12,48,14.00
2020,11,04,12,49,14.00
2020,11,04,12,50,14.00
2020,11,04,12,51,14.00
2020,11,04,12,52,14.10
2020,11,04,12,53,14.10
2020,11,04,12,54,14.20
2020,11,04,12,55,14.30
2020,11,04,12,56,14.30
2020,11,04,12,57,14.30
2020,11,04,12,58,14.30
2020,11,04,12,59,14.30
2020,11,04,13,00,14.30
2020,11,04,13,01,14.30
2020,11,04,13,02,14.30
2020,11,04,13,03,14.40
2020,11,04,13,04,14.40
2020,11,04,13,05,14.30
2020,11,04,13,06,14.30
2020,11,04,13,07,14.20
2020,11,04,13,08,14.10
2020,11,04,13,09,14.10
2020,11,04,13,10,14.10
2020,11,04,13,11,14.10
2020,11,04,13,12,14.10
2020,11,04,13,13,14.10
2020,11,04,13,14,14.00
2020,11,04,13,15,14.00
2020,11,04,13,16,14.00
2020,11,04,13,17,14.00
2020,11,04,13,18,14.00
2020,11,04,13,19,14.00
2020,11,04,13,20,14.00
2020,11,04,13,21,14.00
2020,11,04,13,22,13.90
2020,11,04,13,23,13.90
2020,11,04,13,24,13.90
2020,11,04,13,25,13.70
2020,11,04,13,26,13.70
2020,11,04,13,27,13.60
2020,11,04,13,28,13.60
2020,11,04,13,29,13.60
2020,11,04,13,30,13.60
2020,11,04,13,31,13.60
2020,11,04,13,32,13.60
2020,11,04,13,33,13.70
2020,11,04,13,34,13.70
2020,11,04,13,35,13.80
2020,11,04,13,36,13.80
2020,11,04,13,37,13.80
2020,11,04,13,38,13.80
2020,11,04,13,39,13.70
2020,11,04,13,40,13.70
2020,11,04,13,41,13.60
2020,11,04,13,42,13.60
2020,11,04,13,43,13.60
2020,11,04,13,44,13.60
2020,11,04,13,45,13.60
2020,11,04,13,46,13.60
2020,11,04,13,47,13.80
2020,11,04,13,48,13.90
2020,11,04,13,49,14.00
2020,11,04,13,50,14.10
2020,11,04,13,51,14.10
2020,11,04,13,52,14.20
2020,11,04,13,53,14.30
2020,11,04,13,54,14.30
2020,11,04,13,55,14.40
2020,11,04,13,56,14.60
2020,11,04,13,57,14.60
2020,11,04,13,58,14.60
2020,11,04,13,59,14.70
2020,11,04,14,00,14.80
2020,11,04,14,01,14.90
2020,11,04,14,02,14.90
2020,11,04,14,03,15.00
2020,11,04,14,04,15.10
2020,11,04,14,05,15.20
2020,11,04,14,06,15.30
2020,11,04,14,07,15.40
2020,11,04,14,08,15.50
2020,11,04,14,09,15.60
2020,11,04,14,10,15.70
2020,11,04,14,11,15.80
2020,11,04,14,12,15.80
2020,11,04,14,13,15.90
2020,11,04,14,14,15.90
2020,11,04,14,15,15.80
2020,11,04,14,16,15.90
2020,11,04,14,17,15.90
2020,11,04,14,18,15.90
2020,11,04,14,19,15.90
2020,11,04,14,20,15.90
2020,11,04,14,21,15.90
2020,11,04,14,22,15.90
2020,11,04,14,23,15.90
2020,11,04,14,24,15.80
2020,11,04,14,25,15.80
2020,11,04,14,26,15.80
2020,11,04,14,27,15.70
2020,11,04,14,28,15.70
2020,11,04,14,29,15.70
2020,11,04,14,30,15.70
2020,11,04,14,31,15.70
2020,11,04,14,32,15.60
2020,11,04,14,33,15.60
2020,11,04,14,34,15.60
2020,11,04,14,35,15.60
2020,11,04,14,36,15.50
2020,11,04,14,37,15.50
2020,11,04,14,38,15.50
2020,11,04,14,39,15.40
2020,11,04,14,40,15.40
2020,11,04,14,41,15.40
2020,11,04,14,42,15.30
2020,11,04,14,43,15.20
2020,11,04,14,44,15.20
2020,11,04,14,45,15.10
2020,11,04,14,46,15.10
2020,11,04,14,47,15.00
2020,11,04,14,48,14.90
2020,11,04,14,49,14.90
2020,11,04,14,50,14.90
2020,11,04,14,51,14.80
2020,11,04,14,52,14.80
2020,11,04,14,53,14.70
2020,11,04,14,54,14.70
2020,11,04,14,55,14.60
2020,11,04,14,56,14.60
2020,11,04,14,57,14.50
2020,11,04,14,58,14.40
2020,11,04,14,59,14.40
2020,11,04,15,00,14.30
2020,11,04,15,01,14.30
2020,11,04,15,02,14.20
2020,11,04,15,03,14.20
2020,11,04,15,04,14.10
2020,11,04,15,05,14.10
2020,11,04,15,06,14.00
2020,11,04,15,07,14.00
2020,11,04,15,08,13.90
2020,11,04,15,09,13.90
2020,11,04,15,10,13.90
2020,11,04,15,11,13.80
2020,11,04,15,12,13.80
2020,11,04,15,13,13.70
2020,11,04,15,14,13.70
2020,11,04,15,15,13.70
2020,11,04,15,16,13.70
2020,11,04,15,17,13.70
2020,11,04,15,18,13.60
2020,11,04,15,19,13.60
2020,11,04,15,20,13.60
2020,11,04,15,21,13.60
2020,11,04,15,22,13.60
2020,11,04,15,23,13.60
2020,11,04,15,24,13.50
2020,11,04,15,25,13.50
2020,11,04,15,26,13.50
2020,11,04,15,27,13.50
2020,11,04,15,28,13.50
2020,11,04,15,29,13.50
2020,11,04,15,30,13.40
2020,11,04,15,31,13.40
2020,11,04,15,32,13.40
2020,11,04,15,33,13.40
2020,11,04,15,34,13.40
2020,11,04,15,35,13.40
2020,11,04,15,36,13.40
2020,11,04,15,37,13.40
2020,11,04,15,38,13.40
2020,11,04,15,39,13.40
2020,11,04,15,40,13.30
2020,11,04,15,41,13.30
2020,11,04,15,42,13.30
2020,11,04,15,43,13.20
2020,11,04,15,44,13.20
2020,11,04,15,45,13.10
2020,11,04,15,46,13.10
2020,11,04,15,47,13.10
2020,11,04,15,48,13.00
2020,11,04,15,49,13.00
2020,11,04,15,50,13.00
2020,11,04,15,51,12.90
2020,11,04,15,52,12.80
2020,11,04,15,53,12.80
2020,11,04,15,54,12.80
2020,11,04,15,55,12.80
2020,11,04,15,56,12.70
2020,11,04,15,57,12.70
2020,11,04,15,58,12.60
2020,11,04,15,59,12.60
2020,11,04,16,00,12.60
2020,11,04,16,01,12.60
2020,11,04,16,02,12.50
2020,11,04,16,03,12.50
2020,11,04,16,04,12.50
2020,11,04,16,05,12.50
2020,11,04,16,06,12.40
2020,11,04,16,07,12.40
2020,11,04,16,08,12.40
2020,11,04,16,09,12.40
2020,11,04,16,10,12.40
2020,11,04,16,11,12.40
2020,11,04,16,12,12.40
2020,11,04,16,13,12.30
2020,11,04,16,14,12.30
2020,11,04,16,15,12.30
2020,11,04,16,16,12.30
2020,11,04,16,17,12.30
2020,11,04,16,18,12.40
2020,11,04,16,19,12.40
2020,11,04,16,20,12.40
2020,11,04,16,21,12.40
2020,11,04,16,22,12.40
2020,11,04,16,23,12.40
2020,11,04,16,24,12.30
2020,11,04,16,25,12.30
2020,11,04,16,26,12.30
2020,11,04,16,27,12.30
2020,11,04,16,28,12.30
2020,11,04,16,29,12.30
2020,11,04,16,30,12.40
2020,11,04,16,31,12.40
2020,11,04,16,32,12.40
2020,11,04,16,33,12.40
2020,11,04,16,34,12.40
2020,11,04,16,35,12.40
2020,11,04,16,36,12.40
2020,11,04,16,37,12.40
2020,11,04,16,38,12.30
2020,11,04,16,39,12.30
2020,11,04,16,40,12.30
2020,11,04,16,41,12.30
2020,11,04,16,42,12.30
2020,11,04,16,43,12.30
2020,11,04,16,44,12.20
2020,11,04,16,45,12.20
2020,11,04,16,46,12.20
2020,11,04,16,47,12.20
2020,11,04,16,48,12.20
2020,11,04,16,49,12.20
2020,11,04,16,50,12.20
2020,11,04,16,51,12.20
2020,11,04,16,52,12.20
2020,11,04,16,53,12.20
2020,11,04,16,54,12.10
2020,11,04,16,55,12.10
2020,11,04,16,56,12.10
2020,11,04,16,57,12.10
2020,11,04,16,58,12.10
2020,11,04,16,59,12.10
2020,11,04,17,00,12.10
2020,11,04,17,01,12.10
2020,11,04,17,02,12.00
2020,11,04,17,03,12.10
2020,11,04,17,04,12.00
2020,11,04,17,05,12.00
2020,11,04,17,06,12.00
2020,11,04,17,07,12.00
2020,11,04,17,08,12.00
2020,11,04,17,09,12.00
2020,11,04,17,10,12.00
2020,11,04,17,11,11.90
2020,11,04,17,12,11.90
2020,11,04,17,13,11.90
2020,11,04,17,14,11.90
2020,11,04,17,15,11.90
2020,11,04,17,16,11.90
2020,11,04,17,17,11.90
2020,11,04,17,18,11.90
2020,11,04,17,19,11.90